Evansville Regional Airport Evansville US
ICAO: KEVV
IATA: EVV
Category: Medium
Scheduled Services: Yes

Elevation: 418 ft
TransAlt. 18000 ft.

Airport Communications:
APP/DEP:126.4
ATIS:120.2
CLNC DEL:126.6
CTAF:118.7
GND:121.9
TERRE HAUTE RDO:122.65
TWR:118.7
UNICOM:122.95

KEVV Zoom In..

If you have problems with the map follow the link
https://www.worldairports.se/pages/airport.php?
ICAO=KEVV

Runways:

(A) RW 04 length 8020 ft width 150 ft
ILS 109.90 / hdg 38

(B) RW 09 length 3497 ft width 75 ft
---- / hdg 91

(C) RW 18 length 6286 ft width 150 ft
---- / hdg 181

(D) RW 22 length 8020 ft width 150 ft
ILS 109.90 / hdg 218

(E) RW 27 length 3497 ft width 75 ft
---- / hdg 271

(F) RW 36 length 6286 ft width 150 ft
---- / hdg 1

Location; KEVV
Day. 27 / Time. 05.54 Zulu
* Altimeter: 29.92
* Temperature: 02° c. 35.6°f.
* Wind from: 000° Speed 00 kn.
Dewpoint: 00° c.
Visibility: 9 Statute Miles.
Clouds: Overcast 9000 ft.

KEVV 270554Z AUTO 00000KT 9SM OVC090 02/00 A2992 RMK AO2 SLP135 T00220000 10067 20022 400831006 58006


Wind - Calm.

 
 
jpsmedia worldairports.se 2020   terms of use